Tracking 29892 objects as of 21-Nov-2024
HD Live streaming from Space Station
objects crossing your sky now

DELTA 1 DEB

Track DELTA 1 DEB now!
10-day predictions


NORAD ID: 12198
Int'l Code: 1978-026AP
Perigee: 806.8 km
Apogee: 978.8 km
Inclination: 99.2 °
Period: 102.7 minutes
Semi major axis: 7263 km
RCS: 0.0304 m2 (small)
Launch date: March 5, 1978
Source: United States (US)
Launch site: AIR FORCE WESTERN TEST RANGE (AFWTR)

Note: This is SATELLITE DEBRIS
Your satellite tracking list
Your tracking list is empty




NASA's NSSDC Master Catalog

Two Line Element Set (TLE):
1 12198U 78026AP  24325.95187981  .00001228  00000-0  77954-3 0  9996
2 12198  99.1667 228.2945 0118456  54.7471 306.4711 14.02351957231090
Source of the keplerian elements: AFSPC